Location: Moscow Pond
(43.6842°N, 73.2366°W)
Time: 03:06:26
(UTC+00:00)

Orbus 7S? - Pass Details

Date: 08 November 2025
Orbit: 354 x 6170 km, 56.9° (Epoch: 30 September)

Event Time Altitude Azimuth Distance (km) Brightness Sun altitude
Rises 09:35:44 0° 217° (SW) 5,469 8.1 -22.4°
Reaches altitude 10° 09:40:24 10° 215° (SW) 3,608 7.1 -21.5°
Maximum altitude 09:47:54 61° 137° (SE) 841 4.3 -20.2°
Drops below altitude 10° 09:51:26 10° 56° (NE) 1,733 6.6 -19.5°
Sets 09:53:00 0° 52° (NE) 2,425 7.3 -19.3°
